User: anonymous   Login
Location: Caltech
(34.1382°N, 118.1253°W)
Time: 00:09:35
(UTC-07:00)
Language:

ALOS - Orbit

View from above orbital plane
View from above orbital plane
View from above satellite
View from above satellite

Ground track
Ground track

The orbit data is extracted from the following two-line orbital elements,

1 28931U 06002A   15143.22767512  .00000689  00000-0  14680-3 0  9992
2 28931 097.9334 193.6263 0001870 126.0200 234.1175 14.61860950496997
Epoch (UTC): 23 May 2015 05:27:51
Eccentricity: 0.0001870
inclination: 97.9334°
perigee height: 686 km
apogee height: 688 km
right ascension of ascending node: 193.6263°
argument of perigee: 126.0200°
revolutions per day: 14.61860950
mean anomaly at epoch: 234.1175°
orbit number at epoch: 49699

The dashed part of the orbit path shows where the satellite is in the earth's shadow,  

DLR